Weather History for Nenana, AK

Change the Weather History Date:

Saturday, August 9, 2014

  Actual Average Record
Temperature  
Mean Temperature 65 °F -  
Max Temperature 77 °F 67 °F 82 °F (2005)
Min Temperature 55 °F 47 °F 39 °F (2006)
Growing Degree Days 15 (Base 50)    
Moisture  
Dew Point 47 °F    
Average Humidity 63    
Maximum Humidity 95    
Minimum Humidity 31    
Precipitation  
Precipitation 0.43 in - - ()
Sea Level Pressure  
Sea Level Pressure 29.69 in    
Wind  
Wind Speed 7 mph (East)    
Max Wind Speed 23 mph    
Max Gust Speed 23 mph    
Visibility 10 miles    
Events Rain    
Averages and records for this station are not official NWS values.
T = Trace of Precipitation, MM = Missing Value Source: NWS Daily Summary

Daily Weather History Graph

Daily Weather History Graph

Search for Another Location

Airport:

Trip Planner

Search our weather history database for the weather conditions in past years. The results will help you decide how hot, cold, wet, or windy it might be!

Date:

Astronomy

Aug. 09, 2014 Rise Set
Actual Time 5:26 AM AKDT 10:35 PM AKDT
Civil Twilight 4:10 AM AKDT 11:48 PM AKDT
Nautical Twilight 2:34 AM AKDT 1:29 AM AKDT
Astronomical Twilight Sun does not rise Sun does not rise
Moon 9:25 PM AKDT (8/9) 4:20 AM AKDT (8/9)
Length of Visible Light 19h 38m
Length of Day
17h 09m
Waxing Gibbous, 99% of the Moon is Illuminated
Aug 9
Waxing Gibbous
Aug 10
Full
Aug 17
Last Quarter
Aug 25
New
Sep 2
First Quarter

Hourly Weather History & Observations

Time (AKDT) Temp. Dew Point Humidity Pressure Visibility Wind Dir Wind Speed Gust Speed Precip Events Conditions
12:53 AM 52.0 °F 46.9 °F 83% 29.62 in 10.0 mi Calm Calm - N/A   Clear
1:53 AM 50.0 °F 46.9 °F 89% 29.63 in 10.0 mi SSW 3.5 mph - N/A   Clear
2:53 AM 48.9 °F 46.0 °F 90% 29.63 in 10.0 mi Calm Calm - N/A   Clear
3:53 AM 48.0 °F 44.1 °F 86% 29.64 in 10.0 mi East 4.6 mph - N/A   Clear
4:53 AM 50.0 °F 44.1 °F 80% 29.64 in 10.0 mi East 5.8 mph - N/A   Clear
5:53 AM 51.1 °F 45.0 °F 80% 29.63 in 10.0 mi ENE 4.6 mph - N/A   Clear
6:53 AM 53.1 °F 46.0 °F 77% 29.62 in 10.0 mi East 8.1 mph - N/A   Clear
7:53 AM 55.9 °F 46.0 °F 69% 29.63 in 10.0 mi East 9.2 mph - N/A   Clear
8:53 AM 59.0 °F 44.1 °F 58% 29.63 in 10.0 mi East 9.2 mph - N/A   Clear
9:53 AM 62.1 °F 45.0 °F 53% 29.63 in 10.0 mi ENE 9.2 mph - N/A   Clear
10:53 AM 66.0 °F 46.0 °F 48% 29.63 in 10.0 mi East 10.4 mph - N/A   Clear
11:53 AM 68.0 °F 46.0 °F 45% 29.63 in 10.0 mi East 8.1 mph - N/A   Clear
12:53 PM 70.0 °F 46.9 °F 44% 29.62 in 10.0 mi ENE 10.4 mph - N/A   Clear
1:53 PM 72.0 °F 46.0 °F 40% 29.62 in 10.0 mi ENE 10.4 mph 18.4 mph N/A   Clear
2:53 PM 75.0 °F 46.9 °F 37% 29.61 in 10.0 mi ENE 10.4 mph - N/A   Clear
3:53 PM 75.0 °F 45.0 °F 34% 29.60 in 10.0 mi ENE 11.5 mph - N/A   Clear
4:53 PM 75.9 °F 43.0 °F 31% 29.59 in 10.0 mi ENE 12.7 mph - N/A   Clear
5:53 PM 75.9 °F 44.1 °F 32% 29.59 in 10.0 mi ENE 10.4 mph - N/A   Clear
6:53 PM 75.0 °F 44.1 °F 33% 29.59 in 10.0 mi ENE 15.0 mph 23.0 mph N/A   Mostly Cloudy
8:53 PM 69.1 °F 46.9 °F 45% 29.61 in 10.0 mi Calm Calm - N/A   Mostly Cloudy
9:53 PM 68.0 °F 48.9 °F 50% 29.62 in 10.0 mi East 8.1 mph - N/A   Overcast
10:53 PM 64.0 °F 51.1 °F 63% 29.63 in 10.0 mi East 5.8 mph - N/A   Mostly Cloudy
11:53 PM 63.0 °F 48.9 °F 60% 29.63 in 10.0 mi East 5.8 mph - N/A   Clear